Year,Month,Day,Hour,Minute,Value (Times are PST for barometer in hPa)
2020,11,14,00,00,1010.19
2020,11,14,00,01,1010.26
2020,11,14,00,02,1010.26
2020,11,14,00,03,1010.33
2020,11,14,00,04,1010.30
2020,11,14,00,05,1010.30
2020,11,14,00,06,1010.26
2020,11,14,00,07,1010.36
2020,11,14,00,08,1010.46
2020,11,14,00,09,1010.43
2020,11,14,00,10,1010.50
2020,11,14,00,11,1010.46
2020,11,14,00,12,1010.43
2020,11,14,00,13,1010.46
2020,11,14,00,14,1010.46
2020,11,14,00,15,1010.43
2020,11,14,00,16,1010.46
2020,11,14,00,17,1010.43
2020,11,14,00,18,1010.50
2020,11,14,00,19,1010.60
2020,11,14,00,20,1010.57
2020,11,14,00,21,1010.53
2020,11,14,00,22,1010.53
2020,11,14,00,23,1010.51
2020,11,14,00,24,1010.63
2020,11,14,00,25,1010.60
2020,11,14,00,26,1010.63
2020,11,14,00,27,1010.63
2020,11,14,00,28,1010.60
2020,11,14,00,29,1010.63
2020,11,14,00,30,1010.70
2020,11,14,00,31,1010.67
2020,11,14,00,32,1010.67
2020,11,14,00,33,1010.67
2020,11,14,00,34,1010.70
2020,11,14,00,35,1010.63
2020,11,14,00,36,1010.63
2020,11,14,00,37,1010.67
2020,11,14,00,38,1010.67
2020,11,14,00,39,1010.63
2020,11,14,00,40,1010.67
2020,11,14,00,41,1010.74
2020,11,14,00,42,1010.77
2020,11,14,00,43,1010.74
2020,11,14,00,44,1010.70
2020,11,14,00,45,1010.77
2020,11,14,00,46,1010.77
2020,11,14,00,47,1010.80
2020,11,14,00,48,1010.80
2020,11,14,00,49,1010.84
2020,11,14,00,50,1010.80
2020,11,14,00,51,1010.84
2020,11,14,00,52,1010.84
2020,11,14,00,53,1010.87
2020,11,14,00,54,1010.87
2020,11,14,00,55,1010.97
2020,11,14,00,56,1010.94
2020,11,14,00,57,1011.01
2020,11,14,00,58,1010.91
2020,11,14,00,59,1011.01
2020,11,14,01,00,1010.97
2020,11,14,01,01,1011.04
2020,11,14,01,02,1011.01
2020,11,14,01,03,1011.04
2020,11,14,01,04,1010.97
2020,11,14,01,05,1010.94
2020,11,14,01,06,1010.97
2020,11,14,01,07,1011.04
2020,11,14,01,08,1011.01
2020,11,14,01,09,1011.04
2020,11,14,01,10,1011.04
2020,11,14,01,11,1011.03
2020,11,14,01,12,1010.91
2020,11,14,01,13,1010.91
2020,11,14,01,14,1010.94
2020,11,14,01,15,1011.07
2020,11,14,01,16,1010.84
2020,11,14,01,17,1010.84
2020,11,14,01,18,1010.87
2020,11,14,01,19,1010.84
2020,11,14,01,20,1010.87
2020,11,14,01,21,1010.80
2020,11,14,01,22,1010.77
2020,11,14,01,23,1010.84
2020,11,14,01,24,1010.84
2020,11,14,01,25,1010.84
2020,11,14,01,26,1010.77
2020,11,14,01,27,1010.80
2020,11,14,01,28,1010.91
2020,11,14,01,29,1010.91
2020,11,14,01,30,1010.84
2020,11,14,01,31,1010.84
2020,11,14,01,32,1010.80
2020,11,14,01,33,1010.87
2020,11,14,01,34,1010.84
2020,11,14,01,35,1010.91
2020,11,14,01,36,1010.77
2020,11,14,01,37,1010.87
2020,11,14,01,38,1010.91
2020,11,14,01,39,1010.94
2020,11,14,01,40,1010.91
2020,11,14,01,41,1011.01
2020,11,14,01,42,1010.94
2020,11,14,01,43,1010.97
2020,11,14,01,44,1011.06
2020,11,14,01,45,1010.87
2020,11,14,01,46,1011.07
2020,11,14,01,47,1011.04
2020,11,14,01,48,1011.04
2020,11,14,01,49,1011.04
2020,11,14,01,50,1010.97
2020,11,14,01,51,1011.07
2020,11,14,01,52,1011.07
2020,11,14,01,53,1011.04
2020,11,14,01,54,1011.07
2020,11,14,01,55,1011.11
2020,11,14,01,56,1011.12
2020,11,14,01,57,1011.31
2020,11,14,01,58,1011.23
2020,11,14,01,59,1011.01
2020,11,14,02,00,1011.11
2020,11,14,02,01,1010.88
2020,11,14,02,02,1011.18
2020,11,14,02,03,1011.25
2020,11,14,02,04,1011.35
2020,11,14,02,05,1011.19
2020,11,14,02,06,1011.35
2020,11,14,02,07,1011.45
2020,11,14,02,08,1011.45
2020,11,14,02,09,1011.51
2020,11,14,02,10,1011.45
2020,11,14,02,11,1011.48
2020,11,14,02,12,1011.55
2020,11,14,02,13,1011.51
2020,11,14,02,14,1011.51
2020,11,14,02,15,1011.49
2020,11,14,02,16,1011.64
2020,11,14,02,17,1011.52
2020,11,14,02,18,1011.78
2020,11,14,02,19,1011.69
2020,11,14,02,20,1011.79
2020,11,14,02,21,1011.75
2020,11,14,02,22,1011.82
2020,11,14,02,23,1011.82
2020,11,14,02,24,1011.85
2020,11,14,02,25,1011.76
2020,11,14,02,26,1011.92
2020,11,14,02,27,1011.79
2020,11,14,02,28,1011.85
2020,11,14,02,29,1011.85
2020,11,14,02,30,1011.76
2020,11,14,02,31,1011.92
2020,11,14,02,32,1011.85
2020,11,14,02,33,1011.99
2020,11,14,02,34,1011.99
2020,11,14,02,35,1012.06
2020,11,14,02,36,1012.02
2020,11,14,02,37,1012.02
2020,11,14,02,38,1012.16
2020,11,14,02,39,1012.12
2020,11,14,02,40,1012.26
2020,11,14,02,41,1012.29
2020,11,14,02,42,1012.19
2020,11,14,02,43,1012.26
2020,11,14,02,44,1012.40
2020,11,14,02,45,1012.33
2020,11,14,02,46,1012.33
2020,11,14,02,47,1012.43
2020,11,14,02,48,1012.43
2020,11,14,02,49,1012.40
2020,11,14,02,50,1012.50
2020,11,14,02,51,1012.50
2020,11,14,02,52,1012.46
2020,11,14,02,53,1012.50
2020,11,14,02,54,1012.40
2020,11,14,02,55,1012.50
2020,11,14,02,56,1012.53
2020,11,14,02,57,1012.50
2020,11,14,02,58,1012.51
2020,11,14,02,59,1012.63
2020,11,14,03,00,1012.63
2020,11,14,03,01,1012.63
2020,11,14,03,02,1012.60
2020,11,14,03,03,1012.53
2020,11,14,03,04,1012.73
2020,11,14,03,05,1012.77
2020,11,14,03,06,1012.77
2020,11,14,03,07,1012.80
2020,11,14,03,08,1012.77
2020,11,14,03,09,1012.71
2020,11,14,03,10,1012.67
2020,11,14,03,11,1012.73
2020,11,14,03,12,1012.73
2020,11,14,03,13,1012.73
2020,11,14,03,14,1012.73
2020,11,14,03,15,1012.80
2020,11,14,03,16,1012.77
2020,11,14,03,17,1012.77
2020,11,14,03,18,1012.80
2020,11,14,03,19,1012.80
2020,11,14,03,20,1012.86
2020,11,14,03,21,1012.84
2020,11,14,03,22,1012.93
2020,11,14,03,23,1012.87
2020,11,14,03,24,1012.84
2020,11,14,03,25,1012.99
2020,11,14,03,26,1013.04
2020,11,14,03,27,1013.04
2020,11,14,03,28,1013.10
2020,11,14,03,29,1013.07
2020,11,14,03,30,1013.17
2020,11,14,03,31,1013.17
2020,11,14,03,32,1013.21
2020,11,14,03,33,1013.28
2020,11,14,03,34,1013.24
2020,11,14,03,35,1013.21
2020,11,14,03,36,1013.27
2020,11,14,03,37,1013.24
2020,11,14,03,38,1013.30
2020,11,14,03,39,1013.21
2020,11,14,03,40,1013.24
2020,11,14,03,41,1013.27
2020,11,14,03,42,1013.31
2020,11,14,03,43,1013.41
2020,11,14,03,44,1013.41
2020,11,14,03,45,1013.38
2020,11,14,03,46,1013.38
2020,11,14,03,47,1013.38
2020,11,14,03,48,1013.38
2020,11,14,03,49,1013.41
2020,11,14,03,50,1013.38
2020,11,14,03,51,1013.38
2020,11,14,03,52,1013.38
2020,11,14,03,53,1013.32
2020,11,14,03,54,1013.37
2020,11,14,03,55,1013.38
2020,11,14,03,56,1013.28
2020,11,14,03,57,1013.42
2020,11,14,03,58,1013.41
2020,11,14,03,59,1013.41
2020,11,14,04,00,1013.41
2020,11,14,04,01,1013.41
2020,11,14,04,02,1013.29
2020,11,14,04,03,1013.38
2020,11,14,04,04,1013.38
2020,11,14,04,05,1013.38
2020,11,14,04,06,1013.34
2020,11,14,04,07,1013.38
2020,11,14,04,08,1013.31
2020,11,14,04,09,1013.31
2020,11,14,04,10,1013.37
2020,11,14,04,11,1013.41
2020,11,14,04,12,1013.32
2020,11,14,04,13,1013.34
2020,11,14,04,14,1013.49
2020,11,14,04,15,1013.48
2020,11,14,04,16,1013.54
2020,11,14,04,17,1013.51
2020,11,14,04,18,1013.57
2020,11,14,04,19,1013.51
2020,11,14,04,20,1013.60
2020,11,14,04,21,1013.58
2020,11,14,04,22,1013.52
2020,11,14,04,23,1013.51
2020,11,14,04,24,1013.45
2020,11,14,04,25,1013.44
2020,11,14,04,26,1013.44
2020,11,14,04,27,1013.51
2020,11,14,04,28,1013.44
2020,11,14,04,29,1013.48
2020,11,14,04,30,1013.48
2020,11,14,04,31,1013.48
2020,11,14,04,32,1013.48
2020,11,14,04,33,1013.51
2020,11,14,04,34,1013.55
2020,11,14,04,35,1013.55
2020,11,14,04,36,1013.58
2020,11,14,04,37,1013.58
2020,11,14,04,38,1013.61
2020,11,14,04,39,1013.58
2020,11,14,04,40,1013.55
2020,11,14,04,41,1013.55
2020,11,14,04,42,1013.55
2020,11,14,04,43,1013.58
2020,11,14,04,44,1013.67
2020,11,14,04,45,1013.72
2020,11,14,04,46,1013.56
2020,11,14,04,47,1013.67
2020,11,14,04,48,1013.72
2020,11,14,04,49,1013.72
2020,11,14,04,50,1013.82
2020,11,14,04,51,1013.75
2020,11,14,04,52,1013.94
2020,11,14,04,53,1013.92
2020,11,14,04,54,1013.99
2020,11,14,04,55,1013.99
2020,11,14,04,56,1014.04
2020,11,14,04,57,1013.93
2020,11,14,04,58,1014.02
2020,11,14,04,59,1013.92
2020,11,14,05,00,1014.02
2020,11,14,05,01,1014.02
2020,11,14,05,02,1014.09
2020,11,14,05,03,1014.19
2020,11,14,05,04,1014.13
2020,11,14,05,05,1014.12
2020,11,14,05,06,1014.19
2020,11,14,05,07,1014.16
2020,11,14,05,08,1014.16
2020,11,14,05,09,1014.28
2020,11,14,05,10,1014.20
2020,11,14,05,11,1014.22
2020,11,14,05,12,1014.19
2020,11,14,05,13,1014.22
2020,11,14,05,14,1014.29
2020,11,14,05,15,1014.33
2020,11,14,05,16,1014.33
2020,11,14,05,17,1014.29
2020,11,14,05,18,1014.33
2020,11,14,05,19,1014.36
2020,11,14,05,20,1014.39
2020,11,14,05,21,1014.39
2020,11,14,05,22,1014.46
2020,11,14,05,23,1014.39
2020,11,14,05,24,1014.36
2020,11,14,05,25,1014.42
2020,11,14,05,26,1014.36
2020,11,14,05,27,1014.46
2020,11,14,05,28,1014.43
2020,11,14,05,29,1014.46
2020,11,14,05,30,1014.40
2020,11,14,05,31,1014.45
2020,11,14,05,32,1014.52
2020,11,14,05,33,1014.53
2020,11,14,05,34,1014.49
2020,11,14,05,35,1014.53
2020,11,14,05,36,1014.60
2020,11,14,05,37,1014.65
2020,11,14,05,38,1014.63
2020,11,14,05,39,1014.72
2020,11,14,05,40,1014.63
2020,11,14,05,41,1014.57
2020,11,14,05,42,1014.60
2020,11,14,05,43,1014.63
2020,11,14,05,44,1014.56
2020,11,14,05,45,1014.56
2020,11,14,05,46,1014.53
2020,11,14,05,47,1014.56
2020,11,14,05,48,1014.46
2020,11,14,05,49,1014.46
2020,11,14,05,50,1014.43
2020,11,14,05,51,1014.49
2020,11,14,05,52,1014.46
2020,11,14,05,53,1014.49
2020,11,14,05,54,1014.53
2020,11,14,05,55,1014.60
2020,11,14,05,56,1014.63
2020,11,14,05,57,1014.57
2020,11,14,05,58,1014.53
2020,11,14,05,59,1014.49
2020,11,14,06,00,1014.49
2020,11,14,06,01,1014.46
2020,11,14,06,02,1014.46
2020,11,14,06,03,1014.53
2020,11,14,06,04,1014.47
2020,11,14,06,05,1014.56
2020,11,14,06,06,1014.53
2020,11,14,06,07,1014.53
2020,11,14,06,08,1014.49
2020,11,14,06,09,1014.56
2020,11,14,06,10,1014.63
2020,11,14,06,11,1014.70
2020,11,14,06,12,1014.66
2020,11,14,06,13,1014.72
2020,11,14,06,14,1014.63
2020,11,14,06,15,1014.76
2020,11,14,06,16,1014.77
2020,11,14,06,17,1014.77
2020,11,14,06,18,1014.80
2020,11,14,06,19,1014.77
2020,11,14,06,20,1014.82
2020,11,14,06,21,1014.80
2020,11,14,06,22,1014.80
2020,11,14,06,23,1014.90
2020,11,14,06,24,1014.90
2020,11,14,06,25,1014.93
2020,11,14,06,26,1014.90
2020,11,14,06,27,1014.90
2020,11,14,06,28,1014.90
2020,11,14,06,29,1014.93
2020,11,14,06,30,1014.97
2020,11,14,06,31,1015.06
2020,11,14,06,32,1015.10
2020,11,14,06,33,1015.10
2020,11,14,06,34,1015.17
2020,11,14,06,35,1015.08
2020,11,14,06,36,1015.14
2020,11,14,06,37,1015.10
2020,11,14,06,38,1015.20
2020,11,14,06,39,1015.27
2020,11,14,06,40,1015.24
2020,11,14,06,41,1015.27
2020,11,14,06,42,1015.27
2020,11,14,06,43,1015.27
2020,11,14,06,44,1015.27
2020,11,14,06,45,1015.27
2020,11,14,06,46,1015.27
2020,11,14,06,47,1015.22
2020,11,14,06,48,1015.31
2020,11,14,06,49,1015.24
2020,11,14,06,50,1015.27
2020,11,14,06,51,1015.31
2020,11,14,06,52,1015.34
2020,11,14,06,53,1015.27
2020,11,14,06,54,1015.27
2020,11,14,06,55,1015.31
2020,11,14,06,56,1015.38
2020,11,14,06,57,1015.34
2020,11,14,06,58,1015.40
2020,11,14,06,59,1015.38
2020,11,14,07,00,1015.34
2020,11,14,07,01,1015.38
2020,11,14,07,02,1015.44
2020,11,14,07,03,1015.44
2020,11,14,07,04,1015.44
2020,11,14,07,05,1015.41
2020,11,14,07,06,1015.51
2020,11,14,07,07,1015.41
2020,11,14,07,08,1015.48
2020,11,14,07,09,1015.51
2020,11,14,07,10,1015.54
2020,11,14,07,11,1015.61
2020,11,14,07,12,1015.54
2020,11,14,07,13,1015.61
2020,11,14,07,14,1015.58
2020,11,14,07,15,1015.58
2020,11,14,07,16,1015.61
2020,11,14,07,17,1015.70
2020,11,14,07,18,1015.61
2020,11,14,07,19,1015.65
2020,11,14,07,20,1015.65
2020,11,14,07,21,1015.74
2020,11,14,07,22,1015.75
2020,11,14,07,23,1015.71
2020,11,14,07,24,1015.75
2020,11,14,07,25,1015.78
2020,11,14,07,26,1015.78
2020,11,14,07,27,1015.82
2020,11,14,07,28,1015.82
2020,11,14,07,29,1015.88
2020,11,14,07,30,1015.95
2020,11,14,07,31,1015.98
2020,11,14,07,32,1016.08
2020,11,14,07,33,1016.05
2020,11,14,07,34,1016.11
2020,11,14,07,35,1016.12
2020,11,14,07,36,1016.09
2020,11,14,07,37,1016.14
2020,11,14,07,38,1016.15
2020,11,14,07,39,1016.12
2020,11,14,07,40,1016.05
2020,11,14,07,41,1016.12
2020,11,14,07,42,1016.05
2020,11,14,07,43,1016.05
2020,11,14,07,44,1016.14
2020,11,14,07,45,1016.09
2020,11,14,07,46,1016.09
2020,11,14,07,47,1016.09
2020,11,14,07,48,1016.12
2020,11,14,07,49,1016.19
2020,11,14,07,50,1016.19
2020,11,14,07,51,1016.19
2020,11,14,07,52,1016.29
2020,11,14,07,53,1016.22
2020,11,14,07,54,1016.26
2020,11,14,07,55,1016.26
2020,11,14,07,56,1016.19
2020,11,14,07,57,1016.19
2020,11,14,07,58,1016.26
2020,11,14,07,59,1016.29
2020,11,14,08,00,1016.26
2020,11,14,08,01,1016.22
2020,11,14,08,02,1016.26
2020,11,14,08,03,1016.26
2020,11,14,08,04,1016.29
2020,11,14,08,05,1016.32
2020,11,14,08,06,1016.32
2020,11,14,08,07,1016.32
2020,11,14,08,08,1016.32
2020,11,14,08,09,1016.36
2020,11,14,08,10,1016.39
2020,11,14,08,11,1016.36
2020,11,14,08,12,1016.32
2020,11,14,08,13,1016.29
2020,11,14,08,14,1016.29
2020,11,14,08,15,1016.29
2020,11,14,08,16,1016.29
2020,11,14,08,17,1016.26
2020,11,14,08,18,1016.19
2020,11,14,08,19,1016.22
2020,11,14,08,20,1016.19
2020,11,14,08,21,1016.25
2020,11,14,08,22,1016.13
2020,11,14,08,23,1016.15
2020,11,14,08,24,1016.12
2020,11,14,08,25,1016.15
2020,11,14,08,26,1016.15
2020,11,14,08,27,1016.15
2020,11,14,08,28,1016.12
2020,11,14,08,29,1016.15
2020,11,14,08,30,1016.09
2020,11,14,08,31,1016.05
2020,11,14,08,32,1016.02
2020,11,14,08,33,1016.02
2020,11,14,08,34,1016.02
2020,11,14,08,35,1016.02
2020,11,14,08,36,1015.95
2020,11,14,08,37,1015.98
2020,11,14,08,38,1016.02
2020,11,14,08,39,1016.02
2020,11,14,08,40,1016.14
2020,11,14,08,41,1016.09
2020,11,14,08,42,1016.12
2020,11,14,08,43,1016.02
2020,11,14,08,44,1016.05
2020,11,14,08,45,1016.09
2020,11,14,08,46,1016.05
2020,11,14,08,47,1016.09
2020,11,14,08,48,1016.12
2020,11,14,08,49,1016.19
2020,11,14,08,50,1016.22
2020,11,14,08,51,1016.15
2020,11,14,08,52,1016.22
2020,11,14,08,53,1016.26
2020,11,14,08,54,1016.22
2020,11,14,08,55,1016.29
2020,11,14,08,56,1016.32
2020,11,14,08,57,1016.32
2020,11,14,08,58,1016.36
2020,11,14,08,59,1016.39
2020,11,14,09,00,1016.42
2020,11,14,09,01,1016.46
2020,11,14,09,02,1016.55
2020,11,14,09,03,1016.59
2020,11,14,09,04,1016.63
2020,11,14,09,05,1016.63
2020,11,14,09,06,1016.70
2020,11,14,09,07,1016.73
2020,11,14,09,08,1016.79
2020,11,14,09,09,1016.80
2020,11,14,09,10,1016.87
2020,11,14,09,11,1016.83
2020,11,14,09,12,1016.87
2020,11,14,09,13,1016.87
2020,11,14,09,14,1016.93
2020,11,14,09,15,1016.90
2020,11,14,09,16,1016.90
2020,11,14,09,17,1016.93
2020,11,14,09,18,1017.00
2020,11,14,09,19,1016.97
2020,11,14,09,20,1017.03
2020,11,14,09,21,1017.00
2020,11,14,09,22,1017.00
2020,11,14,09,23,1016.97
2020,11,14,09,24,1017.00
2020,11,14,09,25,1017.00
2020,11,14,09,26,1017.00
2020,11,14,09,27,1017.00
2020,11,14,09,28,1016.97
2020,11,14,09,29,1016.93
2020,11,14,09,30,1016.97
2020,11,14,09,31,1016.97
2020,11,14,09,32,1016.97
2020,11,14,09,33,1016.97
2020,11,14,09,34,1017.00
2020,11,14,09,35,1017.00
2020,11,14,09,36,1017.03
2020,11,14,09,37,1017.07
2020,11,14,09,38,1017.10
2020,11,14,09,39,1017.10
2020,11,14,09,40,1017.14
2020,11,14,09,41,1017.14
2020,11,14,09,42,1017.10
2020,11,14,09,43,1017.10
2020,11,14,09,44,1017.14
2020,11,14,09,45,1017.07
2020,11,14,09,46,1017.10
2020,11,14,09,47,1017.14
2020,11,14,09,48,1017.10
2020,11,14,09,49,1017.14
2020,11,14,09,50,1017.14
2020,11,14,09,51,1017.20
2020,11,14,09,52,1017.17
2020,11,14,09,53,1017.14
2020,11,14,09,54,1017.17
2020,11,14,09,55,1017.14
2020,11,14,09,56,1017.10
2020,11,14,09,57,1017.10
2020,11,14,09,58,1017.10
2020,11,14,09,59,1017.17
2020,11,14,10,00,1017.17
2020,11,14,10,01,1017.14
2020,11,14,10,02,1017.14
2020,11,14,10,03,1017.19
2020,11,14,10,04,1017.10
2020,11,14,10,05,1017.14
2020,11,14,10,06,1017.14
2020,11,14,10,07,1017.07
2020,11,14,10,08,1017.07
2020,11,14,10,09,1017.07
2020,11,14,10,10,1017.10
2020,11,14,10,11,1017.07
2020,11,14,10,12,1017.07
2020,11,14,10,13,1017.10
2020,11,14,10,14,1017.14
2020,11,14,10,15,1017.14
2020,11,14,10,16,1017.14
2020,11,14,10,17,1017.17
2020,11,14,10,18,1017.14
2020,11,14,10,19,1017.14
2020,11,14,10,20,1017.17
2020,11,14,10,21,1017.10
2020,11,14,10,22,1017.10
2020,11,14,10,23,1017.10
2020,11,14,10,24,1017.16
2020,11,14,10,25,1017.10
2020,11,14,10,26,1017.14
2020,11,14,10,27,1017.03
2020,11,14,10,28,1017.00
2020,11,14,10,29,1017.03
2020,11,14,10,30,1017.03
2020,11,14,10,31,1017.03
2020,11,14,10,32,1017.07
2020,11,14,10,33,1017.03
2020,11,14,10,34,1017.00
2020,11,14,10,35,1017.03
2020,11,14,10,36,1017.00
2020,11,14,10,37,1017.00
2020,11,14,10,38,1016.97
2020,11,14,10,39,1016.97
2020,11,14,10,40,1016.93
2020,11,14,10,41,1016.97
2020,11,14,10,42,1016.93
2020,11,14,10,43,1016.90
2020,11,14,10,44,1016.97
2020,11,14,10,45,1016.97
2020,11,14,10,46,1016.93
2020,11,14,10,47,1016.93
2020,11,14,10,48,1016.93
2020,11,14,10,49,1016.93
2020,11,14,10,50,1016.87
2020,11,14,10,51,1016.90
2020,11,14,10,52,1016.87
2020,11,14,10,53,1016.87
2020,11,14,10,54,1016.83
2020,11,14,10,55,1016.87
2020,11,14,10,56,1016.87
2020,11,14,10,57,1016.83
2020,11,14,10,58,1016.83
2020,11,14,10,59,1016.80
2020,11,14,11,00,1016.80
2020,11,14,11,01,1016.76
2020,11,14,11,02,1016.73
2020,11,14,11,03,1016.80
2020,11,14,11,04,1016.76
2020,11,14,11,05,1016.70
2020,11,14,11,06,1016.73
2020,11,14,11,07,1016.73
2020,11,14,11,08,1016.73
2020,11,14,11,09,1016.73
2020,11,14,11,10,1016.67
2020,11,14,11,11,1016.70
2020,11,14,11,12,1016.70
2020,11,14,11,13,1016.66
2020,11,14,11,14,1016.63
2020,11,14,11,15,1016.53
2020,11,14,11,16,1016.56
2020,11,14,11,17,1016.56
2020,11,14,11,18,1016.49
2020,11,14,11,19,1016.49
2020,11,14,11,20,1016.46
2020,11,14,11,21,1016.39
2020,11,14,11,22,1016.42
2020,11,14,11,23,1016.42
2020,11,14,11,24,1016.42
2020,11,14,11,25,1016.39
2020,11,14,11,26,1016.42
2020,11,14,11,27,1016.36
2020,11,14,11,28,1016.39
2020,11,14,11,29,1016.39
2020,11,14,11,30,1016.36
2020,11,14,11,31,1016.32
2020,11,14,11,32,1016.32
2020,11,14,11,33,1016.32
2020,11,14,11,34,1016.29
2020,11,14,11,35,1016.29
2020,11,14,11,36,1016.26
2020,11,14,11,37,1016.26
2020,11,14,11,38,1016.22
2020,11,14,11,39,1016.22
2020,11,14,11,40,1016.22
2020,11,14,11,41,1016.22
2020,11,14,11,42,1016.15
2020,11,14,11,43,1016.12
2020,11,14,11,44,1016.12
2020,11,14,11,45,1016.09
2020,11,14,11,46,1016.09
2020,11,14,11,47,1016.47
2020,11,14,11,48,1016.12
2020,11,14,11,49,1016.12
2020,11,14,11,50,1016.09
2020,11,14,11,51,1016.05
2020,11,14,11,52,1016.05
2020,11,14,11,53,1015.98
2020,11,14,11,54,1015.92
2020,11,14,11,55,1015.82
2020,11,14,11,56,1015.88
2020,11,14,11,57,1015.82
2020,11,14,11,58,1016.20
2020,11,14,11,59,1015.77
2020,11,14,12,00,1015.75
2020,11,14,12,01,1015.71
2020,11,14,12,02,1015.71
2020,11,14,12,03,1015.65
2020,11,14,12,04,1015.68
2020,11,14,12,05,1015.61
2020,11,14,12,06,1015.61
2020,11,14,12,07,1015.54
2020,11,14,12,08,1015.51
2020,11,14,12,09,1015.58
2020,11,14,12,10,1015.51
2020,11,14,12,11,1015.44
2020,11,14,12,12,1015.51
2020,11,14,12,13,1015.41
2020,11,14,12,14,1015.38
2020,11,14,12,15,1015.34
2020,11,14,12,16,1015.31
2020,11,14,12,17,1015.27
2020,11,14,12,18,1015.31
2020,11,14,12,19,1015.27
2020,11,14,12,20,1015.27
2020,11,14,12,21,1015.27
2020,11,14,12,22,1015.27
2020,11,14,12,23,1015.24
2020,11,14,12,24,1015.24
2020,11,14,12,25,1015.24
2020,11,14,12,26,1015.27
2020,11,14,12,27,1015.24
2020,11,14,12,28,1015.27
2020,11,14,12,29,1015.24
2020,11,14,12,30,1015.21
2020,11,14,12,31,1015.31
2020,11,14,12,32,1015.24
2020,11,14,12,33,1015.24
2020,11,14,12,34,1015.21
2020,11,14,12,35,1015.14
2020,11,14,12,36,1015.14
2020,11,14,12,37,1015.04
2020,11,14,12,38,1015.00
2020,11,14,12,39,1014.97
2020,11,14,12,40,1014.97
2020,11,14,12,41,1014.90
2020,11,14,12,42,1014.97
2020,11,14,12,43,1014.90
2020,11,14,12,44,1014.83
2020,11,14,12,45,1014.77
2020,11,14,12,46,1014.80
2020,11,14,12,47,1014.70
2020,11,14,12,48,1014.73
2020,11,14,12,49,1014.63
2020,11,14,12,50,1014.66
2020,11,14,12,51,1014.57
2020,11,14,12,52,1014.60
2020,11,14,12,53,1014.53
2020,11,14,12,54,1014.49
2020,11,14,12,55,1014.46
2020,11,14,12,56,1014.46
2020,11,14,12,57,1014.39
2020,11,14,12,58,1014.39
2020,11,14,12,59,1014.36
2020,11,14,13,00,1014.36
2020,11,14,13,01,1014.33
2020,11,14,13,02,1014.33
2020,11,14,13,03,1014.26
2020,11,14,13,04,1014.20
2020,11,14,13,05,1014.22
2020,11,14,13,06,1014.16
2020,11,14,13,07,1014.16
2020,11,14,13,08,1014.12
2020,11,14,13,09,1014.09
2020,11,14,13,10,1014.02
2020,11,14,13,11,1013.99
2020,11,14,13,12,1013.99
2020,11,14,13,13,1013.95
2020,11,14,13,14,1013.95
2020,11,14,13,15,1013.89
2020,11,14,13,16,1013.79
2020,11,14,13,17,1013.78
2020,11,14,13,18,1013.72
2020,11,14,13,19,1013.58
2020,11,14,13,20,1013.67
2020,11,14,13,21,1013.58
2020,11,14,13,22,1013.51
2020,11,14,13,23,1013.58
2020,11,14,13,24,1013.61
2020,11,14,13,25,1013.58
2020,11,14,13,26,1013.51
2020,11,14,13,27,1013.44
2020,11,14,13,28,1013.38
2020,11,14,13,29,1013.34
2020,11,14,13,30,1013.34
2020,11,14,13,31,1013.31
2020,11,14,13,32,1013.31
2020,11,14,13,33,1013.24
2020,11,14,13,34,1013.24
2020,11,14,13,35,1013.17
2020,11,14,13,36,1013.17
2020,11,14,13,37,1013.14
2020,11,14,13,38,1013.17
2020,11,14,13,39,1013.21
2020,11,14,13,40,1013.17
2020,11,14,13,41,1013.11
2020,11,14,13,42,1013.07
2020,11,14,13,43,1013.04
2020,11,14,13,44,1012.91
2020,11,14,13,45,1012.87
2020,11,14,13,46,1012.80
2020,11,14,13,47,1012.77
2020,11,14,13,48,1012.77
2020,11,14,13,49,1012.77
2020,11,14,13,50,1012.67
2020,11,14,13,51,1012.70
2020,11,14,13,52,1012.67
2020,11,14,13,53,1012.63
2020,11,14,13,54,1012.67
2020,11,14,13,55,1012.54
2020,11,14,13,56,1012.46
2020,11,14,13,57,1012.43
2020,11,14,13,58,1012.43
2020,11,14,13,59,1012.36
2020,11,14,14,00,1012.33
2020,11,14,14,01,1012.26
2020,11,14,14,02,1012.26
2020,11,14,14,03,1012.23
2020,11,14,14,04,1012.23
2020,11,14,14,05,1012.26
2020,11,14,14,06,1012.26
2020,11,14,14,07,1012.26
2020,11,14,14,08,1012.19
2020,11,14,14,09,1012.16
2020,11,14,14,10,1012.12
2020,11,14,14,11,1012.16
2020,11,14,14,12,1012.12
2020,11,14,14,13,1012.12
2020,11,14,14,14,1012.06
2020,11,14,14,15,1011.99
2020,11,14,14,16,1011.90
2020,11,14,14,17,1011.82
2020,11,14,14,18,1011.69
2020,11,14,14,19,1011.65
2020,11,14,14,20,1011.62
2020,11,14,14,21,1011.62
2020,11,14,14,22,1011.55
2020,11,14,14,23,1011.55
2020,11,14,14,24,1011.48
2020,11,14,14,25,1011.41
2020,11,14,14,26,1011.45
2020,11,14,14,27,1011.51
2020,11,14,14,28,1011.41
2020,11,14,14,29,1011.45
2020,11,14,14,30,1011.48
2020,11,14,14,31,1011.51
2020,11,14,14,32,1011.45
2020,11,14,14,33,1011.45
2020,11,14,14,34,1011.87
2020,11,14,14,35,1011.38
2020,11,14,14,36,1011.35
2020,11,14,14,37,1011.31
2020,11,14,14,38,1011.24
2020,11,14,14,39,1011.28
2020,11,14,14,40,1011.18
2020,11,14,14,41,1011.18
2020,11,14,14,42,1011.07
2020,11,14,14,43,1011.01
2020,11,14,14,44,1010.91
2020,11,14,14,45,1010.87
2020,11,14,14,46,1010.91
2020,11,14,14,47,1010.87
2020,11,14,14,48,1010.87
2020,11,14,14,49,1010.84
2020,11,14,14,50,1010.77
2020,11,14,14,51,1010.74
2020,11,14,14,52,1010.67
2020,11,14,14,53,1010.63
2020,11,14,14,54,1010.57
2020,11,14,14,55,1010.57
2020,11,14,14,56,1010.57
2020,11,14,14,57,1010.53
2020,11,14,14,58,1010.57
2020,11,14,14,59,1010.57
2020,11,14,15,00,1010.53
2020,11,14,15,01,1010.50
2020,11,14,15,02,1010.33
2020,11,14,15,03,1010.26
2020,11,14,15,04,1010.23
2020,11,14,15,05,1010.30
2020,11,14,15,06,1010.23
2020,11,14,15,07,1010.23
2020,11,14,15,08,1010.06
2020,11,14,15,09,1010.09
2020,11,14,15,10,1010.02
2020,11,14,15,11,1010.06
2020,11,14,15,12,1010.06
2020,11,14,15,13,1009.93
2020,11,14,15,14,1009.92
2020,11,14,15,15,1009.96
2020,11,14,15,16,1009.99
2020,11,14,15,17,1009.96
2020,11,14,15,18,1009.89
2020,11,14,15,19,1009.82
2020,11,14,15,20,1009.79
2020,11,14,15,21,1009.75
2020,11,14,15,22,1009.82
2020,11,14,15,23,1009.70
2020,11,14,15,24,1009.75
2020,11,14,15,25,1009.75
2020,11,14,15,26,1009.55
2020,11,14,15,27,1009.62
2020,11,14,15,28,1009.48
2020,11,14,15,29,1009.42
2020,11,14,15,30,1009.38
2020,11,14,15,31,1009.26
2020,11,14,15,32,1009.31
2020,11,14,15,33,1009.25
2020,11,14,15,34,1009.18
2020,11,14,15,35,1009.18
2020,11,14,15,36,1009.14
2020,11,14,15,37,1009.04
2020,11,14,15,38,1009.01
2020,11,14,15,39,1008.97
2020,11,14,15,40,1008.91
2020,11,14,15,41,1008.91
2020,11,14,15,42,1008.87
2020,11,14,15,43,1008.81
2020,11,14,15,44,1008.87
2020,11,14,15,45,1008.78
2020,11,14,15,46,1008.87
2020,11,14,15,47,1008.97
2020,11,14,15,48,1008.81
2020,11,14,15,49,1008.81
2020,11,14,15,50,1008.91
2020,11,14,15,51,1008.77
2020,11,14,15,52,1008.81
2020,11,14,15,53,1008.87
2020,11,14,15,54,1008.87
2020,11,14,15,55,1008.81
2020,11,14,15,56,1008.84